Regional Weather Roundup
Issued by NWS Upton, NY

Current Version | Previous Version | Text Only | Print | Product List | Glossary On
Versions: 1 2 3 4 5 6 7 8 9 10 11 12 13 14 15 16 17 18 19 20 21 22 23 24 25 26 27 28 29 30 31 32 33 34 35 36 37 38 39 40 41 42 43 44 45 46 47 48 49 50
000
ASUS41 KOKX 230105
RWROKX
REGIONAL WEATHER ROUNDUP
NATIONAL WEATHER SERVICE NEW YORK NY
900 PM EDT FRI AUG 22 2014

NOTE: "FAIR" INDICATES FEW OR NO CLOUDS BELOW 12,000 FEET WITH NO
SIGNIFICANT WEATHER AND/OR OBSTRUCTIONS TO VISIBILITY.

NYZ071-072-176-178-NJZ106-104-230200-
NEW YORK CITY METRO AREA


CITY           SKY/WX    TMP DP  RH WIND       PRES   REMARKS
CENTRAL PARK   CLOUDY    70  58  65 E7        30.07R
LAGUARDIA APRT CLOUDY    71  59  65 E8        30.04R
KENNEDY INTL   MOCLDY    72  60  66 NE5       30.05R
NEWARK/LIBERTY CLOUDY    72  61  68 E6        30.05R
BRNX BOT. GARD   N/A     68  61  77 E3        30.06R
TETERBORO      CLOUDY    72  58  61 E6        30.04R
$$

NYZ177-179-078>081-230200-
LONG ISLAND NEW YORK

CITY           SKY/WX    TMP DP  RH WIND       PRES   REMARKS
FARMINGDALE    CLOUDY    69  60  73 NE5       30.04S
ISLIP          MOCLDY    69  60  73 E8        30.03S
SHIRLEY        PTCLDY    67  60  78 CALM      30.06R
WESTHAMPTON    PTCLDY    66  61  84 NE5       30.07S
MONTAUK POINT    N/A     68  61  78 E5        30.08S
$$

NYZ052-065-067-230200-
HUDSON VALLEY

CITY           SKY/WX    TMP DP  RH WIND       PRES   REMARKS
WHITE PLAINS   MOCLDY    68  61  78 E5        30.05S
NEWBURGH       CLOUDY    64  64 100 VRB6      30.07S
MONTGOMERY     CLOUDY    66  63  90 N3        30.07R
POUGHKEEPSIE   CLOUDY    69  62  78 CALM      30.06R
ALBANY         CLOUDY    66  61  84 CALM      30.09R
$$

NJZ001-105-106-008-010-013-015-019>022-104-230200-
NEW JERSEY

CITY           SKY/WX    TMP DP  RH WIND       PRES   REMARKS
NEWARK/LIBERTY CLOUDY    72  61  68 E6        30.05R
TETERBORO      CLOUDY    72  58  61 E6        30.04R
CALDWELL       CLOUDY    68  59  73 CALM      30.06R
MORRISTOWN     CLOUDY    68  63  83 CALM      30.06R
SOMERVILLE     CLOUDY    70  60  70 CALM      30.04R
LINDEN         CLOUDY    75  64  67 SE5       30.06S
SUSSEX         CLOUDY    69  64  84 CALM      30.06R
ANDOVER          N/A     67  62  84 CALM      30.07R
TRENTON        CLOUDY    70  59  68 E8        30.03R
MILLVILLE      MOCLDY    69  63  81 E6        30.02R
ATLANTIC CITY  CLEAR     66  62  87 NE3       30.02R
WRIGHTSTOWN    CLEAR     66  62  86 NE5       30.02R
TOMS RIVER     CLEAR     66  61  82 CALM      30.04S
BELMAR         CLOUDY    70  61  73 E8        30.04S
$$

PAZ047>061-062-071-230200-
EASTERN PENNSYLVANIA

CITY           SKY/WX    TMP DP  RH WIND       PRES   REMARKS
PHILADELPHIA   MOCLDY    72  63  73 E10       30.03R
ALLENTOWN      CLOUDY    72  63  73 E6        30.04R
SCRANTON       CLOUDY    70  63  78 SE10      30.03R
$$

CTZ002-004>006-009-010-012-RIZ004-006-007-MAZ004-011-015-230200-
SOUTHERN NEW ENGLAND
 IN CT

CITY           SKY/WX    TMP DP  RH WIND       PRES   REMARKS
BRADLEY INTL   CLOUDY    66  63  90 N5        30.08S
HARTFORD       CLOUDY    67  63  87 N7        30.08R
DANBURY        CLOUDY    68  61  78 E6        30.08S
WTRBRY/OXFORD  CLOUDY    66  59  77 NE6       30.10
BRIDGEPORT     CLOUDY    71  62  73 E10       30.06R
MERIDEN        CLOUDY    68  62  81 NE3       30.07S
NEW HAVEN      CLOUDY    71  62  73 E3        30.06S
CHESTER        CLOUDY    66  64  94 NE3       30.08S
GROTON         MOCLDY    67  62  84 NE3       30.06S
WILLIMANTIC    LGT RAIN  67  63  87 NE6       30.09R

 IN RI

CITY           SKY/WX    TMP DP  RH WIND       PRES   REMARKS
PROVIDENCE     CLOUDY    68  59  73 NE10      30.09R
BLOCK ISLAND   PTCLDY    66  59  77 E6        30.08R
WESTERLY       PTCLDY    68  61  78 CALM      30.08R

 IN MA

CITY           SKY/WX    TMP DP  RH WIND       PRES   REMARKS
BOSTON         MOCLDY    66  62  87 NE10      30.10S
WORCESTER      CLOUDY    63  60  90 NE6       30.12S
WESTFIELD      CLOUDY    66  63  90 N6        30.09S
PROVINCETOWN   MOCLDY    64  61  88 MISG      30.10S
NANTUCKET      MOCLDY    65  61  87 NE10      30.07R
$$

ANZ330-335-338-340-345-350-353-355-230200-
COASTAL MARINE OBSERVATIONS


STATION/POSITION TIME  SKY/WX   TEMP    WIND        PRES    VSBY  WAVE
                                AIR SEA DIR/SP/G                  HT/PER
                 (UTC)          (F)     (DEG/KT/KT) (MB)    (MI)  (FT/S)
NY HARB ENTRANCE NOT AVBL
4S FIRE IS       NOT AVBL
23SW MTP         0100            67 70              1017.0          4/ 5
HUDSON CANYON    0100            70 73   50/ 16/ 19 1015.6          4/ 8
EXECUTION ROCKS  0100            71 73   90/ 12/ 16   N/A
WESTERN LI SOUND 0100            72      80/ 14/ 17   N/A           2/ 3
CENTRAL LI SOUND 0000            70 72  100/ 14/ 16   N/A           2/ 3
EASTERN LI SOUND 0000            69 69   80/ 10/ 12   N/A
ROBBINS REEF     0100            71      70/  5/  6   N/A
$$


>>>>>>>>>>>>>>>>>>>>>>>>>>>> KEY <<<<<<<<<<<<<<<<<<<<<<<<<<<
>                                                          <
>     SKY/WX - SKY CONDITION/PRESENT WEATHER               <
>     TMP    - TEMPERATURE IN FAHRENHEIT                   <
>     DP     - DEWPOINT IN FAHRENHEIT                      <
>     RH     - RELATIVE HUMIDITY IN PERCENT                <
>     WIND   - DIRECTION AND SPEED IN MPH                  <
>     PRES   - MEAN SEA LEVEL PRESSURE IN INCHES OF HG     <
>     WCI    - WIND CHILL INDEX                            <
>     VSB    - VISIBILITY IN MILES                         <
>     HX     - HEAT INDEX                                  <
>     TC     - TEMPERATURE IN CELSIUS                      <
>     VRB    - VARIABLE WIND DIRECTION                     <
>                                                          <
>>>>>>>>>>>>>>>>>>>>>>>>>>>> KEY <<<<<<<<<<<<<<<<<<<<<<<<<<<




USA.gov is the U.S. government's official web portal to all federal, state and local government web resources and services.